Tracking 19246 objects as of 20-Aug-2018
HD Live streaming from Space Station
objects crossing your sky now

NOAA 16 DEB

Track NOAA 16 DEB now!
10-day predictions


NORAD ID: 41433
Int'l Code: 2000-055LN
Perigee: 804.3 km
Apogee: 855.7 km
Inclination: 99.0 °
Period: 101.4 minutes
Semi major axis: 7200 km
RCS: Unknown
Launch date: September 21, 2000
Source: United States (US)
Launch site: AIR FORCE WESTERN TEST RANGE (AFWTR)

Note: This is SATELLITE DEBRIS
aabbcc
Your satellite tracking list
Your tracking list is empty




NASA's NSSDC Master Catalog

Two Line Element Set (TLE):
1 41433U 00055LN  18231.05993395 +.00001352 +00000-0 +64407-3 0  9998
2 41433 099.0011 328.5341 0035731 122.8134 237.6491 14.20737570132658
Source of the keplerian elements: AFSPC